Flag for U.S.A. Weather past 2 weeks in Sitka, Alaska, U.S.A.

Now
42 °F

Light rain. Cloudy.


Feels Like: 37 °F
Forecast: 38 / 40 °F
Wind: 9 mph from Northwest

Location: Sitka Airport

Current Time: Dec 21, 2014 at 2:36:01 PM

Latest Report: Dec 21, 2014 at 1:53 PM


Visibility: 10 mi

Pressure: 29.45 "Hg

Humidity: 89%

Dew point: 39 °F

Location of SitkaLocation

Historic Weather in Sitka — Graph

°F

Sitka temperature yesterday

Maximum temperature yesterday: 47 °F (at 5:53 AM)
Minimum temperature yesterday: 41 °F (at 11:53 PM)
Average temperature yesterday: 46 °F

Past Weeks' High & Low Weather Summary

 TemperatureHumidityPressure
High52 °F (Dec 8, 5:53 AM)100% (Dec 6, 1:53 PM)29.93 "Hg (Dec 6, 1:53 PM)
Low34 °F (Dec 17, 5:53 AM)41% (Dec 15, 9:53 AM)28.74 "Hg (Dec 9, 1:53 PM)
Average44 °F76%29.35 "Hg
* Reported Dec 6 12:53 PM — Dec 21 12:53 PM, Sitka, Weather by CustomWeather, © 2014

Note: Actual official high and low records may vary slightly from our data, if they occured in-between our weather recording intervals... More about our weather records

Advertising

Sitka weather history for previous 24 hours

 ConditionsComfort  
Time TempWeatherWind HumidityBarometerVisibility
12:53 PM
Dec 21
42 °FLight rain. Overcast.10 mph85%29.42 "Hg10 mi
11:53 AM42 °FOvercast.10 mph89%29.39 "Hg10 mi
10:53 AM41 °FMore clouds than sun.No wind93%29.38 "Hg10 mi
9:53 AM41 °FMostly cloudy.3 mph89%29.35 "Hg10 mi
8:53 AM41 °FMostly cloudy.5 mph89%29.32 "Hg10 mi
7:53 AM40 °FOvercast.No wind89%29.30 "Hg10 mi
6:53 AM39 °FMostly cloudy.7 mph93%29.28 "Hg10 mi
5:53 AM39 °FPassing clouds.6 mph93%29.26 "Hg10 mi
4:53 AM39 °FOvercast.6 mph93%29.24 "Hg10 mi
3:53 AM39 °FClear.6 mph96%29.22 "Hg10 mi
2:53 AM40 °FLight rain. Overcast.5 mph97%29.20 "Hg10 mi
1:53 AM41 °FLight rain. Partly cloudy.7 mph93%29.18 "Hg10 mi
12:53 AM41 °FLight rain. Mostly cloudy.6 mph93%29.16 "Hg10 mi
11:53 PM
Dec 20
41 °FLight rain. Mostly cloudy.8 mph93%29.13 "Hg10 mi
10:53 PM43 °FLight rain. Mostly cloudy.6 mph86%29.10 "Hg10 mi
9:53 PM43 °FLight rain. Overcast.3 mph86%29.08 "Hg8 mi
8:53 PM42 °FLight rain. Overcast.8 mph89%29.05 "Hg10 mi
7:53 PM43 °FLight rain. Overcast.7 mph86%29.02 "Hg10 mi
6:53 PM43 °FLight rain. Overcast.10 mph86%29.00 "Hg10 mi
5:53 PM45 °FLight rain. Overcast.13 mph74%28.97 "Hg10 mi
4:53 PM46 °FOvercast.12 mph66%28.94 "Hg10 mi
3:53 PM47 °FOvercast.13 mph64%28.92 "Hg10 mi
2:53 PM47 °FOvercast.18 mph61%28.90 "Hg10 mi
Weather by CustomWeather, © 2014

See weather overviewHow to use our weather pages